Find SSU 3

NORAD ID: 8836 Int'l Des: 1976-038 Owner: NRO/NRL Country: US operational
LEO

实时位置

正在加载3D地球...

关于 SSU 3

正在加载描述...

即将过境

Passes for default location (London). Set your location on the main map for personalized predictions.

高度历史

Loading altitude history...

两行轨道根数

1 08836U 76038D 26134.88454413 .00000041 00000-0 76274-4 0 9997
2 08836 63.3624 356.5415 0385169 179.7585 180.3721 13.82925081346671
Epoch: May 14, 2026 • Age: 32 hours

当前状态

高度 975.5 km
速度 7.36 km/s
星下点 63.07°N, 124.67°E
类型 other

Most Searched